2016-063A

Last updated on Thu Oct 20 2016 09:17:16 GMT+0000 (Coordinated Universal Time)

1 41820U 16063A 16294.10100296 -.00003513 11108-4 00000+0 0 9999 2 41820 51.6441 155.3504 0013217 346.3448 140.0886 15.91627277 124
UTC large
Height (km)
Speed (km/s)
/
Latitude / Longitude
Inclination (degrees)
Orbital Period (minutes)
Azimuth
Elevation
Range (km)
Doppler Factor

Next 0 passes for location: London (51.5072 / 0.1276)

Sorry there are no passes over London.